Weather History for Port Angeles, WA

Change the Weather History Date:

Thursday, July 18, 2013

  Actual Average Record
Temperature  
Mean Temperature 60 °F -  
Max Temperature 66 °F 70 °F 87 °F (1956)
Min Temperature 55 °F 51 °F 43 °F (1962)
Degree Days  
Heating Degree Days 4    
Growing Degree Days 10 (Base 50)    
Moisture  
Dew Point 52 °F    
Average Humidity 75    
Maximum Humidity 87    
Minimum Humidity 65    
Precipitation  
Precipitation 0.00 in - - ()
Sea Level Pressure  
Sea Level Pressure 30.21 in    
Wind  
Wind Speed 9 mph (WNW)    
Max Wind Speed 15 mph    
Max Gust Speed 23 mph    
Visibility 10 miles    
Events      
Averages and records for this station are not official NWS values.
T = Trace of Precipitation, MM = Missing Value Source: NWS Daily Summary

Daily Weather History Graph

Daily Weather History Graph

Search for Another Location

Airport:

Trip Planner

Search our weather history database for the weather conditions in past years. The results will help you decide how hot, cold, wet, or windy it might be!

Date:

Astronomy

Jul. 18, 2013 Rise Set
Actual Time 5:33 AM PDT 9:06 PM PDT
Civil Twilight 4:54 AM PDT 9:45 PM PDT
Nautical Twilight 4:02 AM PDT 10:37 PM PDT
Astronomical Twilight 2:50 AM PDT 11:47 PM PDT
Moon 5:07 PM PDT 1:32 AM PDT
Length of Visible Light 16h 50m
Length of Day
15h 33m
Waxing Gibbous, 78% of the Moon is Illuminated
Jul 18
Waxing Gibbous
Jul 22
Full
Jul 29
Last Quarter
Aug 6
New
Aug 14
First Quarter

Hourly Weather History & Observations

Time (PDT) Temp. Dew Point Humidity Pressure Visibility Wind Dir Wind Speed Gust Speed Precip Events Conditions
12:53 AM 57.9 °F 52.0 °F 81% 30.21 in 10.0 mi WNW 8.1 mph - N/A   Overcast
1:53 AM 57.9 °F 52.0 °F 81% 30.22 in 10.0 mi WNW 10.4 mph - N/A   Overcast
2:53 AM 57.9 °F 52.0 °F 81% 30.22 in 10.0 mi WNW 6.9 mph - N/A   Overcast
3:53 AM 57.9 °F 51.1 °F 78% 30.21 in 10.0 mi West 6.9 mph - N/A   Overcast
4:53 AM 57.9 °F 51.1 °F 78% 30.22 in 10.0 mi WNW 5.8 mph - N/A   Overcast
5:53 AM 57.9 °F 51.1 °F 78% 30.22 in 10.0 mi WNW 4.6 mph - N/A   Overcast
6:53 AM 57.9 °F 51.1 °F 78% 30.23 in 10.0 mi WNW 3.5 mph - N/A   Overcast
7:53 AM 60.1 °F 52.0 °F 75% 30.24 in 10.0 mi West 3.5 mph - N/A   Overcast
8:28 AM 60.1 °F 52.0 °F 75% 30.24 in 10.0 mi NW 3.5 mph - N/A   Scattered Clouds
8:53 AM 62.1 °F 52.0 °F 70% 30.25 in 10.0 mi NNW 8.1 mph - N/A   Partly Cloudy
9:53 AM 62.1 °F 51.1 °F 67% 30.24 in 10.0 mi NNW 10.4 mph - N/A   Clear
10:53 AM 63.0 °F 52.0 °F 67% 30.24 in 10.0 mi WNW 10.4 mph - N/A   Clear
11:53 AM 64.0 °F 53.1 °F 67% 30.24 in 10.0 mi NW 10.4 mph - N/A   Clear
12:53 PM 64.9 °F 53.1 °F 65% 30.23 in 10.0 mi NNW 12.7 mph 20.7 mph N/A   Clear
1:53 PM 66.0 °F 54.0 °F 65% 30.22 in 10.0 mi NW 10.4 mph - N/A   Clear
2:53 PM 64.9 °F 54.0 °F 68% 30.21 in 10.0 mi NW 13.8 mph 23.0 mph N/A   Clear
3:53 PM 64.9 °F 55.0 °F 70% 30.20 in 10.0 mi NW 15.0 mph 18.4 mph N/A   Clear
4:53 PM 63.0 °F 54.0 °F 72% 30.19 in 10.0 mi NW 13.8 mph 23.0 mph N/A   Clear
5:53 PM 63.0 °F 53.1 °F 70% 30.18 in 10.0 mi NW 11.5 mph - N/A   Clear
6:53 PM 62.1 °F 53.1 °F 72% 30.17 in 10.0 mi NW 12.7 mph - N/A   Clear
7:53 PM 60.1 °F 52.0 °F 75% 30.17 in 10.0 mi WNW 13.8 mph - N/A   Clear
8:53 PM 57.9 °F 52.0 °F 81% 30.16 in 10.0 mi WNW 12.7 mph - N/A   Clear
9:53 PM 55.9 °F 52.0 °F 87% 30.17 in 10.0 mi WNW 12.7 mph 23.0 mph N/A   Clear
10:53 PM 55.9 °F 52.0 °F 87% 30.16 in 10.0 mi WNW 13.8 mph - N/A   Clear
11:53 PM 55.9 °F 52.0 °F 87% 30.16 in 10.0 mi West 11.5 mph - N/A   Clear